Flag for Romania Weather past 2 weeks in Timișoara, Romania

Now
66 °F

Passing clouds.


Feels Like: 66 °F
Forecast: 60 / 77 °F
Wind: 8 mph from North

Location: Timisoara Airport

Current Time: Jun 30, 2015 at 2:29:51 AM

Latest Report: Jun 30, 2015 at 2:00 AM


Visibility: N/A

Pressure: 30.07 "Hg

Humidity: 83%

Dew point: 61 °F

Location of TimișoaraLocation

Historic Weather in Timișoara — Graph

°F

Timișoara temperature yesterday

Maximum temperature yesterday: 81 °F (at 3:30 PM)
Minimum temperature yesterday: 59 °F (at 3:30 AM)
Average temperature yesterday: 70 °F

Past Weeks' High & Low Weather Summary

 TemperatureHumidityPressure
High88 °F (Jun 15, 5:00 PM)100% (Jun 15, 10:00 PM)30.15 "Hg (Jun 15, 10:00 PM)
Low46 °F (Jun 22, 5:00 AM)22% (Jun 22, 6:30 PM)29.80 "Hg (Jun 15, 7:00 PM)
Average65 °F74%29.96 "Hg
* Reported Jun 15 1:00 AM — Jun 30 1:30 AM, Timișoara, Weather by CustomWeather, © 2015

Note: Actual official high and low records may vary slightly from our data, if they occured in-between our weather recording intervals... More about our weather records

Advertising

Timișoara weather history for previous 24 hours

 ConditionsComfort  
Time TempWeatherWind HumidityBarometerVisibility
1:30 AM
Tue, Jun 30
66 °FSprinkles. Passing clouds.5 mph83%30.09 "HgN/A
12:00 AM68 °FPassing clouds.5 mph78%30.09 "HgN/A
11:30 PM
Mon, Jun 29
68 °FPassing clouds.5 mph78%30.07 "HgN/A
11:00 PM68 °FPassing clouds.5 mph78%30.07 "HgN/A
10:30 PM68 °FClear.6 mph73%30.07 "Hg10 mi
10:00 PM68 °FSunny.6 mph73%30.07 "Hg10 mi
9:30 PM70 °FSunny.5 mph69%30.07 "Hg10 mi
9:00 PM73 °FSunny.8 mph57%30.07 "Hg10 mi
8:30 PM75 °FSunny.8 mph54%30.04 "Hg10 mi
8:00 PM75 °FSunny.9 mph50%30.04 "Hg10 mi
7:30 PM77 °FSunny.12 mph47%30.04 "Hg10 mi
7:00 PM79 °FSunny.14 mph45%30.04 "Hg10 mi
6:30 PM79 °FSunny.10 mph42%30.04 "Hg10 mi
6:00 PM81 °FSunny.9 mph30%30.04 "Hg10 mi
5:30 PM81 °FSunny.13 mph32%30.04 "Hg10 mi
5:00 PM81 °FPassing clouds.12 mph34%30.04 "HgN/A
4:30 PM81 °FSunny.13 mph32%30.04 "Hg10 mi
4:00 PM81 °FSunny.10 mph34%30.04 "Hg10 mi
3:30 PM81 °FSunny.12 mph34%30.04 "Hg10 mi
3:00 PM79 °FPassing clouds.12 mph34%30.07 "HgN/A
2:30 PM79 °FScattered clouds.13 mph34%30.07 "HgN/A
2:00 PM79 °FScattered clouds.9 mph39%30.07 "HgN/A
1:30 PM77 °FScattered clouds.10 mph39%30.07 "HgN/A
1:00 PM77 °FPassing clouds.8 mph44%30.07 "HgN/A
12:30 PM77 °FPassing clouds.6 mph47%30.07 "HgN/A
12:00 PM75 °FPassing clouds.8 mph57%30.09 "HgN/A
11:30 AM73 °FPassing clouds.2 mph57%30.07 "HgN/A
11:00 AM72 °FPassing clouds.3 mph65%30.09 "HgN/A
10:30 AM70 °FPassing clouds.2 mph69%30.09 "HgN/A
10:00 AM68 °FSunny.2 mph73%30.09 "Hg10 mi
9:30 AM68 °FSunny.1 mph73%30.07 "Hg10 mi
9:00 AM66 °FSunny.2 mph78%30.07 "Hg10 mi
8:30 AM64 °FSunny.1 mph83%30.07 "Hg10 mi
8:00 AM63 °FPassing clouds.3 mph83%30.07 "HgN/A
7:30 AM61 °FSunny.2 mph88%30.04 "Hg10 mi
7:00 AM59 °FSunny.2 mph94%30.04 "Hg10 mi
6:00 AM59 °FPassing clouds.3 mph94%30.04 "HgN/A
5:30 AM59 °FClear.No wind94%30.04 "Hg10 mi
5:00 AM59 °FClear.2 mph94%30.04 "Hg10 mi
4:30 AM59 °FClear.5 mph100%30.04 "Hg10 mi
4:00 AM61 °FClear.2 mph94%30.04 "Hg10 mi
3:30 AM59 °FCool.3 mph100%30.04 "HgN/A
3:00 AM61 °FClear.3 mph94%30.04 "Hg10 mi
2:30 AM61 °FClear.6 mph100%30.04 "Hg10 mi
2:00 AM61 °FClear.7 mph100%30.04 "Hg10 mi
Weather by CustomWeather, © 2015

See weather overviewHow to use our weather pages